| time (UTC) | temp C | wind direction | speed KPH | gust KPH | rain 1hr cm | rain 24hr cm | rain mn cm | humidity % | barometer mb |
| 20260503014212 | 10 | 358 | 3.2 | 6.4 | 0.00 | 0.00 | 0.00 | 82 | 1014.0 |
| 20260503014111 | 10 | 358 | 3.2 | 6.4 | 0.00 | 0.00 | 0.00 | 82 | 1014.0 |
| 20260503012211 | 9 | 7 | 1.6 | 4.8 | 0.00 | 0.00 | 0.00 | 83 | 1013.0 |
| 20260503012111 | 9 | 7 | 1.6 | 4.8 | 0.00 | 0.00 | 0.00 | 83 | 1013.0 |
| 20260503010210 | 10 | 7 | 1.6 | 4.8 | 0.00 | 0.00 | 0.00 | 83 | 1014.0 |
| 20260503010110 | 10 | 7 | 1.6 | 4.8 | 0.00 | 0.00 | 0.00 | 83 | 1014.0 |
| 20260503004210 | 10 | 20 | 1.6 | 4.8 | 0.00 | 0.00 | 0.00 | 82 | 1014.0 |
| 20260503004110 | 10 | 20 | 1.6 | 4.8 | 0.00 | 0.00 | 0.00 | 82 | 1014.0 |
| 20260503002210 | 11 | 20 | 3.2 | 4.8 | 0.00 | 0.00 | 0.00 | 82 | 1012.0 |
| 20260503002109 | 11 | 20 | 3.2 | 4.8 | 0.00 | 0.00 | 0.00 | 82 | 1012.0 |
| 20260503000211 | 10 | 20 | 3.2 | 4.8 | 0.13 | 0.00 | 0.00 | 83 | 1013.0 |
| 20260503000109 | 10 | 20 | 3.2 | 4.8 | 0.13 | 0.00 | 0.00 | 83 | 1013.0 |
| 20260502234209 | 10 | 20 | 3.2 | 4.8 | 0.18 | 0.00 | 0.00 | 83 | 1013.0 |
| 20260502234108 | 10 | 20 | 3.2 | 4.8 | 0.18 | 0.00 | 0.00 | 83 | 1013.0 |
| 20260502232208 | 11 | 34 | 3.2 | 6.4 | 0.20 | 0.00 | 0.00 | 82 | 1011.0 |
| 20260502232108 | 11 | 34 | 3.2 | 6.4 | 0.20 | 0.00 | 0.00 | 82 | 1011.0 |
| 20260502230207 | 10 | 34 | 3.2 | 6.4 | 0.03 | 0.00 | 0.00 | 82 | 1012.0 |
| 20260502230107 | 10 | 34 | 3.2 | 6.4 | 0.03 | 0.00 | 0.00 | 82 | 1012.0 |
| 20260502224207 | 10 | 34 | 3.2 | 6.4 | 0.00 | 0.00 | 0.00 | 82 | 1012.0 |
| 20260502224107 | 10 | 34 | 3.2 | 6.4 | 0.00 | 0.00 | 0.00 | 82 | 1012.0 |
| 20260502222206 | 11 | 18 | 4.8 | 9.7 | 0.00 | 0.00 | 0.00 | 82 | 1010.0 |
| 20260502222106 | 11 | 18 | 4.8 | 9.7 | 0.00 | 0.00 | 0.00 | 82 | 1010.0 |
| 20260502220206 | 11 | 18 | 4.8 | 9.7 | 0.00 | 0.00 | 0.00 | 82 | 1011.0 |
| 20260502220106 | 11 | 18 | 4.8 | 9.7 | 0.00 | 0.00 | 0.00 | 82 | 1011.0 |
| 20260502214206 | 10 | 18 | 4.8 | 9.7 | 0.00 | 0.00 | 0.00 | 85 | 1011.0 |
| 20260502214105 | 10 | 18 | 4.8 | 9.7 | 0.00 | 0.00 | 0.00 | 85 | 1011.0 |
| 20260502212205 | 10 | 11 | 1.6 | 8.0 | 0.03 | 0.00 | 0.00 | 85 | 1010.0 |
| 20260502212105 | 10 | 11 | 1.6 | 8.0 | 0.03 | 0.00 | 0.00 | 85 | 1010.0 |
| 20260502210205 | 11 | 11 | 1.6 | 8.0 | 0.00 | 0.00 | 0.00 | 83 | 1012.0 |
| 20260502210104 | 11 | 11 | 1.6 | 8.0 | 0.00 | 0.00 | 0.00 | 83 | 1012.0 |
| 20260502204204 | 12 | 11 | 1.6 | 8.0 | 0.03 | 0.00 | 0.00 | 82 | 1012.0 |
| 20260502204104 | 12 | 11 | 1.6 | 8.0 | 0.03 | 0.00 | 0.00 | 82 | 1012.0 |
| 20260502202203 | 11 | 349 | 3.2 | 6.4 | 0.10 | 0.00 | 0.00 | 86 | 1011.0 |
| 20260502202103 | 11 | 349 | 3.2 | 6.4 | 0.10 | 0.00 | 0.00 | 86 | 1011.0 |
| 20260502200203 | 11 | 349 | 3.2 | 6.4 | 0.10 | 0.00 | 0.00 | 86 | 1012.0 |
| 20260502194202 | 11 | 349 | 3.2 | 6.4 | 0.10 | 0.00 | 0.00 | 86 | 1012.0 |
| 20260502194102 | 11 | 349 | 3.2 | 6.4 | 0.10 | 0.00 | 0.00 | 86 | 1012.0 |
| 20260502192202 | 12 | 21 | 4.8 | 9.7 | 0.15 | 0.00 | 0.00 | 82 | 1011.0 |
| 20260502192102 | 12 | 21 | 4.8 | 9.7 | 0.15 | 0.00 | 0.00 | 82 | 1011.0 |
| 20260502190201 | 11 | 21 | 4.8 | 9.7 | 0.15 | 0.00 | 0.00 | 90 | 1012.0 |
| 20260502184201 | 11 | 21 | 4.8 | 9.7 | 0.15 | 0.00 | 0.00 | 90 | 1012.0 |
| 20260502184101 | 11 | 21 | 4.8 | 9.7 | 0.15 | 0.00 | 0.00 | 90 | 1012.0 |
| 20260502182200 | 11 | 43 | 3.2 | 8.0 | 0.03 | 0.00 | 0.00 | 84 | 1012.0 |
| 20260502182100 | 11 | 43 | 3.2 | 8.0 | 0.03 | 0.00 | 0.00 | 84 | 1012.0 |
| 20260502180200 | 11 | 43 | 3.2 | 8.0 | 0.03 | 0.00 | 0.00 | 88 | 1013.0 |
| 20260502170158 | 11 | 87 | 3.2 | 4.8 | 0.05 | 0.00 | 0.00 | 89 | 1014.0 |
| 20260502164157 | 11 | 87 | 3.2 | 4.8 | 0.05 | 0.00 | 0.00 | 88 | 1014.0 |
| 20260502164057 | 11 | 87 | 3.2 | 4.8 | 0.05 | 0.00 | 0.00 | 88 | 1014.0 |
| 20260502162157 | 12 | 85 | 3.2 | 4.8 | 0.03 | 0.00 | 0.00 | 82 | 1012.0 |
| 20260502162056 | 12 | 85 | 3.2 | 4.8 | 0.03 | 0.00 | 0.00 | 82 | 1012.0 |
| 20260502160156 | 12 | 85 | 3.2 | 4.8 | 0.03 | 0.00 | 0.00 | 83 | 1013.0 |
| 20260502152155 | 12 | 64 | 3.2 | 6.4 | 0.00 | 0.00 | 0.00 | 81 | 1013.0 |
| 20260502152055 | 12 | 64 | 3.2 | 6.4 | 0.00 | 0.00 | 0.00 | 81 | 1013.0 |
| 20260502150155 | 12 | 64 | 3.2 | 6.4 | 0.00 | 0.00 | 0.00 | 81 | 1013.0 |
| 20260502130152 | 11 | 7 | 4.8 | 8.0 | 0.00 | 0.00 | 0.00 | 90 | 1013.0 |
| 20260502122151 | 10 | 2 | 3.2 | 8.0 | 0.00 | 0.00 | 0.00 | 81 | 1012.0 |
| 20260502122051 | 10 | 2 | 3.2 | 8.0 | 0.00 | 0.00 | 0.00 | 81 | 1012.0 |
| 20260502120151 | 10 | 2 | 3.2 | 8.0 | 0.00 | 0.00 | 0.00 | 81 | 1013.0 |
| 20260502114150 | 10 | 2 | 3.2 | 8.0 | 0.00 | 0.00 | 0.00 | 81 | 1013.0 |
| 20260502114050 | 10 | 2 | 3.2 | 8.0 | 0.00 | 0.00 | 0.00 | 81 | 1013.0 |
| 20260502112150 | 8 | 359 | 1.6 | 4.8 | 0.00 | 0.00 | 0.00 | 81 | 1011.0 |
| 20260502112050 | 8 | 359 | 1.6 | 4.8 | 0.00 | 0.00 | 0.00 | 81 | 1011.0 |
| 20260502110149 | 10 | 359 | 3.2 | 4.8 | 0.00 | 0.00 | 0.00 | 81 | 1013.0 |
| 20260502110049 | 10 | 359 | 3.2 | 4.8 | 0.00 | 0.00 | 0.00 | 81 | 1013.0 |
| 20260502104149 | 8 | 359 | 3.2 | 4.8 | 0.00 | 0.00 | 0.00 | 89 | 1013.0 |
| 20260502102149 | 9 | 358 | 3.2 | 4.8 | 0.00 | 0.00 | 0.00 | 89 | 1011.0 |
| 20260502102048 | 9 | 358 | 3.2 | 4.8 | 0.00 | 0.00 | 0.00 | 89 | 1011.0 |
| 20260502100148 | 10 | 358 | 3.2 | 4.8 | 0.00 | 0.00 | 0.00 | 81 | 1012.0 |
| 20260502090147 | 9 | 351 | 3.2 | 4.8 | 0.00 | 0.00 | 0.00 | 91 | 1012.0 |
| 20260502070142 | 10 | 300 | 3.2 | 3.2 | 0.00 | 0.00 | 0.00 | 81 | 1012.0 |
| 20260502070042 | 10 | 300 | 3.2 | 3.2 | 0.00 | 0.00 | 0.00 | 81 | 1012.0 |
| 20260502064142 | 10 | 300 | 3.2 | 3.2 | 0.00 | 0.00 | 0.00 | 93 | 1012.0 |
| 20260502064042 | 10 | 300 | 3.2 | 3.2 | 0.00 | 0.00 | 0.00 | 93 | 1012.0 |
| 20260502062142 | 10 | 45 | 0.0 | 1.6 | 0.00 | 0.00 | 0.00 | 81 | 1012.0 |
| 20260502062041 | 10 | 45 | 0.0 | 1.6 | 0.00 | 0.00 | 0.00 | 81 | 1012.0 |
| 20260502060141 | 9 | 45 | 0.0 | 1.6 | 0.00 | 0.00 | 0.00 | 93 | 1013.0 |
| 20260502060040 | 9 | 45 | 0.0 | 1.6 | 0.00 | 0.00 | 0.00 | 93 | 1013.0 |
| 20260502054140 | 10 | 45 | 0.0 | 1.6 | 0.00 | 0.00 | 0.00 | 93 | 1013.0 |
| 20260502054040 | 10 | 45 | 0.0 | 1.6 | 0.00 | 0.00 | 0.00 | 93 | 1013.0 |
| 20260502052140 | 10 | 97 | 1.6 | 1.6 | 0.00 | 0.00 | 0.00 | 81 | 1013.0 |
| 20260502052040 | 10 | 97 | 1.6 | 1.6 | 0.00 | 0.00 | 0.00 | 81 | 1013.0 |
| 20260502050139 | 10 | 97 | 1.6 | 1.6 | 0.00 | 0.00 | 0.00 | 95 | 1013.0 |
| 20260502050039 | 10 | 97 | 1.6 | 1.6 | 0.00 | 0.00 | 0.00 | 95 | 1013.0 |
| 20260502044139 | 10 | 97 | 1.6 | 1.6 | 0.00 | 0.00 | 0.00 | 81 | 1013.0 |
| 20260502044038 | 10 | 97 | 1.6 | 1.6 | 0.00 | 0.00 | 0.00 | 81 | 1013.0 |
| 20260502042138 | 10 | 345 | 1.6 | 1.6 | 0.00 | 0.00 | 0.00 | 89 | 1013.0 |
| 20260502042038 | 10 | 345 | 1.6 | 1.6 | 0.00 | 0.00 | 0.00 | 89 | 1013.0 |
| 20260502040138 | 10 | 345 | 1.6 | 1.6 | 0.00 | 0.00 | 0.00 | 83 | 1013.0 |
| 20260502040038 | 10 | 345 | 1.6 | 1.6 | 0.00 | 0.00 | 0.00 | 83 | 1013.0 |
| 20260502034137 | 11 | 345 | 1.6 | 1.6 | 0.00 | 0.00 | 0.00 | 81 | 1013.0 |
| 20260502034037 | 11 | 345 | 1.6 | 1.6 | 0.00 | 0.00 | 0.00 | 81 | 1013.0 |
| 20260502032137 | 10 | 352 | 1.6 | 3.2 | 0.00 | 0.00 | 0.00 | 93 | 1012.0 |
| 20260502032037 | 10 | 352 | 1.6 | 3.2 | 0.00 | 0.00 | 0.00 | 93 | 1012.0 |
| 20260502030136 | 11 | 352 | 1.6 | 3.2 | 0.00 | 0.00 | 0.00 | 81 | 1013.0 |
| 20260502030036 | 11 | 352 | 1.6 | 3.2 | 0.00 | 0.00 | 0.00 | 81 | 1013.0 |
| 20260502024136 | 10 | 352 | 1.6 | 3.2 | 0.00 | 0.00 | 0.00 | 91 | 1013.0 |
| 20260502024036 | 10 | 352 | 1.6 | 3.2 | 0.00 | 0.00 | 0.00 | 91 | 1013.0 |
| 20260502022135 | 11 | 356 | 1.6 | 3.2 | 0.00 | 0.00 | 0.00 | 81 | 1012.0 |
| 20260502022035 | 11 | 356 | 1.6 | 3.2 | 0.00 | 0.00 | 0.00 | 81 | 1012.0 |
| 20260502020135 | 10 | 356 | 1.6 | 3.2 | 0.00 | 0.00 | 0.00 | 91 | 1013.0 |
| 20260502020035 | 10 | 356 | 1.6 | 3.2 | 0.00 | 0.00 | 0.00 | 91 | 1013.0 |